When you browse on this site, cookies collect data to enhance your experience and personalize the content and advertising you see.
Visit our Privacy Policy to learn more. By continuing to use the site, you agree to this use of cookies and data.
  • In Sweden
  • List of Countries
  • For 7 days
  • Water Temperature
  • Satellite Maps
  • Weather Map
  • Weather Widgets
  • user-avatar
    Login

    Hourly Weather Novaya Mihaylovka

    Today, 26 May, Sunday

    Time Temperature Precipitation Wind Pressure Humidity
    00:00 +12°C° 0 mm 5 mps 743 mmHg 64%
    01:00 +12°C° 0 mm 5 mps 742 mmHg 66%
    02:00 +10°C° 0 mm 5 mps 742 mmHg 68%
    03:00 +10°C° 0 mm 4 mps 742 mmHg 71%
    04:00 +11°C° 0.1 mm 4 mps 741 mmHg 72%
    05:00 +10°C° 0.1 mm 5 mps 741 mmHg 73%
    06:00 +10°C° 0.1 mm 5 mps 741 mmHg 74%
    07:00 +12°C° 0.2 mm 5 mps 741 mmHg 75%
    08:00 +14°C° 0.2 mm 5 mps 741 mmHg 76%
    09:00 +15°C° 0 mm 5 mps 740 mmHg 76%
    10:00 +17°C° 0.1 mm 5 mps 740 mmHg 72%
    11:00 +19°C° 0.1 mm 6 mps 740 mmHg 68%
    12:00 +21°C° 0.1 mm 6 mps 739 mmHg 65%
    13:00 +21°C° 0.3 mm 6 mps 739 mmHg 65%
    14:00 +21°C° 0.3 mm 6 mps 738 mmHg 65%
    15:00 +22°C° 0.3 mm 7 mps 738 mmHg 66%
    16:00 +21°C° 0.5 mm 6 mps 738 mmHg 70%
    17:00 +21°C° 0.5 mm 5 mps 737 mmHg 74%
    18:00 +20°C° 0.5 mm 4 mps 737 mmHg 78%
    19:00 +18°C° 0.2 mm 4 mps 737 mmHg 83%
    20:00 +17°C° 0.2 mm 3 mps 736 mmHg 88%
    21:00 +14°C° 0.2 mm 3 mps 736 mmHg 93%
    22:00 +15°C° 0 mm 2 mps 736 mmHg 94%
    23:00 +14°C° 0 mm 2 mps 736 mmHg 95%

    Tomorrow, 27 May, Monday

    Time Temperature Precipitation Wind Pressure Humidity
    00:00 +13°C° 0 mm 2 mps 736 mmHg 96%
    01:00 +13°C° 0 mm 2 mps 736 mmHg 97%
    02:00 +13°C° 0 mm 2 mps 737 mmHg 97%
    03:00 +13°C° 0 mm 2 mps 737 mmHg 97%
    04:00 +13°C° 0 mm 3 mps 737 mmHg 97%
    05:00 +13°C° 0 mm 3 mps 737 mmHg 96%
    06:00 +14°C° 0 mm 4 mps 738 mmHg 95%
    07:00 +15°C° 0 mm 4 mps 738 mmHg 91%
    08:00 +18°C° 0 mm 4 mps 739 mmHg 86%
    09:00 +19°C° 0 mm 4 mps 740 mmHg 81%
    10:00 +20°C° 0.1 mm 5 mps 740 mmHg 75%
    11:00 +21°C° 0.1 mm 5 mps 741 mmHg 70%
    12:00 +22°C° 0.1 mm 5 mps 741 mmHg 64%
    13:00 +22°C° 0 mm 6 mps 741 mmHg 62%
    14:00 +22°C° 0 mm 6 mps 742 mmHg 61%
    15:00 +22°C° 0 mm 6 mps 742 mmHg 59%
    16:00 +21°C° 0 mm 5 mps 743 mmHg 63%
    17:00 +21°C° 0 mm 5 mps 743 mmHg 67%
    18:00 +20°C° 0 mm 4 mps 743 mmHg 71%
    19:00 +19°C° 0 mm 3 mps 744 mmHg 75%
    20:00 +17°C° 0 mm 3 mps 744 mmHg 80%
    21:00 +15°C° 0 mm 2 mps 745 mmHg 85%
    22:00 +15°C° 0 mm 2 mps 745 mmHg 86%
    23:00 +14°C° 0 mm 2 mps 746 mmHg 88%

    Day after tomorrow, 28 May, Tuesday

    Time Temperature Precipitation Wind Pressure Humidity
    00:00 +14°C° 0 mm 2 mps 746 mmHg 90%
    01:00 +14°C° 0 mm 2 mps 746 mmHg 91%
    02:00 +13°C° 0 mm 2 mps 746 mmHg 92%
    03:00 +13°C° 0 mm 2 mps 747 mmHg 93%
    04:00 +14°C° 0 mm 2 mps 747 mmHg 91%
    05:00 +15°C° 0 mm 2 mps 747 mmHg 89%
    06:00 +16°C° 0 mm 2 mps 748 mmHg 87%
    07:00 +17°C° 0 mm 2 mps 748 mmHg 81%
    08:00 +19°C° 0 mm 3 mps 748 mmHg 75%
    09:00 +21°C° 0 mm 3 mps 748 mmHg 69%
    10:00 +21°C° 0 mm 3 mps 748 mmHg 66%
    11:00 +22°C° 0 mm 3 mps 748 mmHg 62%
    12:00 +24°C° 0 mm 3 mps 748 mmHg 59%
    13:00 +25°C° 0 mm 3 mps 748 mmHg 59%
    14:00 +25°C° 0 mm 3 mps 748 mmHg 58%
    15:00 +26°C° 0 mm 4 mps 748 mmHg 58%
    16:00 +25°C° 0 mm 3 mps 748 mmHg 61%
    17:00 +25°C° 0 mm 2 mps 748 mmHg 65%
    18:00 +25°C° 0 mm 2 mps 748 mmHg 69%
    19:00 +23°C° 0 mm 2 mps 748 mmHg 72%
    20:00 +20°C° 0 mm 2 mps 749 mmHg 75%
    21:00 +18°C° 0 mm 2 mps 749 mmHg 78%
    22:00 +18°C° 0 mm 2 mps 749 mmHg 80%
    23:00 +17°C° 0 mm 2 mps 749 mmHg 82%

    29 May, Wednesday

    Time Temperature Precipitation Wind Pressure Humidity
    00:00 +17°C° 0 mm 2 mps 749 mmHg 84%
    01:00 +17°C° 0 mm 2 mps 750 mmHg 85%
    02:00 +16°C° 0 mm 2 mps 750 mmHg 86%
    03:00 +16°C° 0 mm 2 mps 750 mmHg 87%
    04:00 +17°C° 0 mm 2 mps 750 mmHg 86%
    05:00 +17°C° 0 mm 2 mps 750 mmHg 84%
    06:00 +18°C° 0 mm 2 mps 750 mmHg 83%
    07:00 +20°C° 0 mm 2 mps 750 mmHg 78%
    08:00 +23°C° 0 mm 2 mps 750 mmHg 73%
    09:00 +24°C° 0 mm 3 mps 750 mmHg 68%
    10:00 +25°C° 0 mm 3 mps 750 mmHg 64%
    11:00 +26°C° 0 mm 3 mps 750 mmHg 60%
    12:00 +27°C° 0 mm 3 mps 750 mmHg 56%
    13:00 +27°C° 0 mm 3 mps 750 mmHg 56%
    14:00 +27°C° 0 mm 3 mps 750 mmHg 55%
    15:00 +28°C° 0 mm 3 mps 750 mmHg 54%
    16:00 +27°C° 0 mm 3 mps 750 mmHg 58%
    17:00 +27°C° 0 mm 2 mps 750 mmHg 62%
    18:00 +27°C° 0 mm 2 mps 750 mmHg 67%
    19:00 +25°C° 0 mm 1 mps 750 mmHg 70%
    20:00 +23°C° 0 mm 1 mps 750 mmHg 72%
    21:00 +21°C° 0 mm 1 mps 750 mmHg 75%
    22:00 +21°C° 0 mm 1 mps 750 mmHg 77%
    23:00 +20°C° 0 mm 1 mps 750 mmHg 79%

    30 May, Thursday

    Time Temperature Precipitation Wind Pressure Humidity
    00:00 +20°C° 0 mm 1 mps 750 mmHg 80%
    01:00 +19°C° 0 mm 1 mps 750 mmHg 82%
    02:00 +19°C° 0 mm 1 mps 750 mmHg 83%
    03:00 +19°C° 0 mm 1 mps 751 mmHg 84%
    04:00 +20°C° 0 mm 1 mps 751 mmHg 83%
    05:00 +20°C° 0 mm 1 mps 751 mmHg 81%
    06:00 +21°C° 0 mm 1 mps 751 mmHg 79%
    07:00 +23°C° 0 mm 2 mps 751 mmHg 74%
    08:00 +24°C° 0 mm 2 mps 751 mmHg 68%
    09:00 +26°C° 0 mm 2 mps 751 mmHg 63%
    10:00 +27°C° 0 mm 3 mps 751 mmHg 60%
    11:00 +28°C° 0 mm 3 mps 751 mmHg 56%
    12:00 +29°C° 0 mm 3 mps 750 mmHg 53%
    13:00 +29°C° 0 mm 3 mps 750 mmHg 53%
    14:00 +29°C° 0 mm 3 mps 750 mmHg 52%
    15:00 +29°C° 0 mm 3 mps 750 mmHg 52%
    16:00 +29°C° 0 mm 3 mps 750 mmHg 56%
    17:00 +29°C° 0 mm 2 mps 750 mmHg 60%
    18:00 +28°C° 0 mm 2 mps 749 mmHg 65%
    19:00 +26°C° 0 mm 1 mps 749 mmHg 67%
    20:00 +24°C° 0 mm 1 mps 750 mmHg 70%
    21:00 +23°C° 0 mm 1 mps 750 mmHg 73%
    22:00 +22°C° 0 mm 1 mps 750 mmHg 75%
    23:00 +22°C° 0 mm 1 mps 750 mmHg 76%

    31 May, Friday

    Time Temperature Precipitation Wind Pressure Humidity
    00:00 +21°C° 0 mm 1 mps 750 mmHg 77%
    01:00 +21°C° 0 mm 1 mps 750 mmHg 78%
    02:00 +20°C° 0 mm 1 mps 750 mmHg 79%
    03:00 +20°C° 0 mm 1 mps 750 mmHg 80%
    04:00 +21°C° 0 mm 1 mps 750 mmHg 79%
    05:00 +22°C° 0 mm 1 mps 750 mmHg 78%
    06:00 +22°C° 0 mm 1 mps 750 mmHg 77%
    07:00 +24°C° 0 mm 2 mps 750 mmHg 72%
    08:00 +26°C° 0 mm 2 mps 750 mmHg 67%
    09:00 +27°C° 0 mm 2 mps 750 mmHg 62%
    10:00 +28°C° 0 mm 2 mps 750 mmHg 58%
    11:00 +29°C° 0 mm 3 mps 749 mmHg 54%
    12:00 +30°C° 0 mm 3 mps 749 mmHg 50%
    13:00 +30°C° 0 mm 3 mps 749 mmHg 50%
    14:00 +30°C° 0 mm 3 mps 749 mmHg 51%
    15:00 +30°C° 0 mm 2 mps 749 mmHg 51%
    16:00 +29°C° 0 mm 2 mps 748 mmHg 54%
    17:00 +29°C° 0 mm 2 mps 748 mmHg 58%
    18:00 +28°C° 0 mm 1 mps 748 mmHg 62%
    19:00 +27°C° 0 mm 1 mps 748 mmHg 63%
    20:00 +25°C° 0 mm 2 mps 748 mmHg 65%
    21:00 +24°C° 0 mm 2 mps 748 mmHg 67%
    22:00 +23°C° 0 mm 2 mps 748 mmHg 68%
    23:00 +21°C° 0 mm 2 mps 748 mmHg 70%
    Show more